Starlink 35421

operational
NORAD ID: 66061 Int'l Des: 2025-235 Owner: SPXS Country: US Constellation: starlink
NOTLE

About Starlink 35421

Description loading...

Live Position

Loading 3D Globe...

Upcoming Passes

Altitude History

Altitude vs Time

uPlot chart will show altitude changes over time

Two-Line Element Set

1 66061C 25235E 25293.06715278 .00529190 00000+0 78801-3 0 2932
2 66061 53.1589 188.8586 0006073 293.5624 197.4664 16.03535557 11
Epoch: Oct 20, 2025 • Age: 14 hours

Current Status

Altitude 266.9 km
Velocity 7.75 km/s
Sub-Earth Point 21.04°N, 115.29°E
Launch Date Oct 19, 2025
Age 1 days
Type internet

Technical Details

Classification Payload
Mass 575.00 kg
Dry Mass 530.00 kg
Total Mass 575.00 kg
Length 0.30 m
Diameter 4.10 m
Span 29.00 m
Shape Box + pan
Manufacturer SPXS
Bus Type Starlink V2MO
Phase Status In Orbit
Owner/State SPXS/US

Large Constellations

Loading constellations...